sat.trackr.live / text

‹ back to catalog

STARLINK-6244

NORAD 56548 · 2023-065AX

PAYLOAD ACTIVE UNKNOWN

§ Identity

Operator
Country
US
Launch date
2023-05-14
Launch site
AFETR
Launch vehicle
Mass (kg)
RCS (m²)

Purposes: comms

External: N2YO · Heavens-Above · Gunter

§ Orbital elements

Epoch: 2026-09-20T04:18:33.489792Z

Period
94.27 min
Inclination
43.0024°
Eccentricity
0.0001298
Mean motion
15.27575108 rev/d
Perigee alt
482.2 km
Apogee alt
484.0 km
Semi-major
6,861.2 km
B*
3.4466e-5
RAAN
205.4832°
Arg perigee
269.5070°
Mean anomaly
90.5633°
Rev number
18,621

§ Raw data

STARLINK-62441 56548U 23065AX  26263.17955428  .00000686  00000+0  34466-4 0  99902 56548  43.0024 205.4832 0001298 269.5070  90.5633 15.27575108186211

JSON: /api/v1/satellites/56548 · /tle

For live sub-satellite position, see the globe view (requires WebGL).

§ Visibility from observer

Set your observer location to see the next 7 days of passes ≥ 10°. The values pass through the URL so the page stays shareable.

No JS? Fill the form by hand. The geolocation button needs JavaScript.